Hourly Weather Barra de Carrasco

Today, 19 April, Monday

Time Temperature Precipitation Wind Pressure Humidity
00:00 +16°C° 0 mm 5 mps 764 mmHg 86%
01:00 +16°C° 0 mm 5 mps 764 mmHg 87%
02:00 +15°C° 0 mm 5 mps 764 mmHg 88%
03:00 +15°C° 0 mm 4 mps 764 mmHg 88%
04:00 +14°C° 0 mm 4 mps 764 mmHg 87%
05:00 +14°C° 0 mm 4 mps 765 mmHg 87%
06:00 +15°C° 0 mm 4 mps 765 mmHg 84%
07:00 +17°C° 0 mm 4 mps 765 mmHg 81%
08:00 +17°C° 0 mm 4 mps 766 mmHg 78%
09:00 +19°C° 0 mm 4 mps 766 mmHg 72%
10:00 +21°C° 0 mm 4 mps 766 mmHg 67%
11:00 +22°C° 0 mm 4 mps 766 mmHg 62%
12:00 +23°C° 0 mm 4 mps 765 mmHg 60%
13:00 +23°C° 0 mm 4 mps 765 mmHg 59%
14:00 +25°C° 0 mm 4 mps 764 mmHg 57%
15:00 +23°C° 0 mm 4 mps 764 mmHg 63%
16:00 +22°C° 0 mm 4 mps 764 mmHg 69%
17:00 +21°C° 0 mm 4 mps 764 mmHg 76%
18:00 +20°C° 0 mm 5 mps 764 mmHg 77%
19:00 +19°C° 0 mm 5 mps 765 mmHg 79%
20:00 +17°C° 0 mm 6 mps 765 mmHg 81%
21:00 +16°C° 0 mm 6 mps 765 mmHg 83%
22:00 +16°C° 0 mm 6 mps 765 mmHg 86%
23:00 +16°C° 0 mm 6 mps 765 mmHg 88%

Tomorrow, 20 April, Tuesday

Time Temperature Precipitation Wind Pressure Humidity
00:00 +15°C° 0 mm 6 mps 765 mmHg 89%
01:00 +15°C° 0 mm 5 mps 765 mmHg 90%
02:00 +15°C° 0 mm 5 mps 765 mmHg 91%
03:00 +15°C° 0 mm 5 mps 765 mmHg 92%
04:00 +15°C° 0 mm 5 mps 765 mmHg 93%
05:00 +15°C° 0 mm 5 mps 765 mmHg 94%
06:00 +16°C° 0 mm 5 mps 765 mmHg 91%
07:00 +17°C° 0 mm 6 mps 766 mmHg 88%
08:00 +19°C° 0 mm 6 mps 766 mmHg 85%
09:00 +20°C° 0 mm 6 mps 766 mmHg 78%
10:00 +21°C° 0 mm 6 mps 766 mmHg 72%
11:00 +23°C° 0 mm 6 mps 766 mmHg 66%
12:00 +23°C° 0 mm 6 mps 765 mmHg 64%
13:00 +24°C° 0 mm 6 mps 765 mmHg 61%
14:00 +25°C° 0 mm 5 mps 765 mmHg 59%
15:00 +23°C° 0 mm 6 mps 764 mmHg 64%
16:00 +22°C° 0 mm 6 mps 764 mmHg 69%
17:00 +21°C° 0 mm 6 mps 764 mmHg 74%
18:00 +20°C° 0 mm 7 mps 765 mmHg 76%
19:00 +18°C° 0 mm 7 mps 765 mmHg 78%
20:00 +17°C° 0 mm 7 mps 765 mmHg 80%
21:00 +17°C° 0 mm 7 mps 765 mmHg 84%
22:00 +17°C° 0 mm 7 mps 765 mmHg 88%
23:00 +17°C° 0 mm 7 mps 765 mmHg 91%

Day after tomorrow, 21 April, Wednesday

Time Temperature Precipitation Wind Pressure Humidity
00:00 +17°C° 0 mm 7 mps 764 mmHg 90%
01:00 +17°C° 0 mm 8 mps 764 mmHg 88%
02:00 +17°C° 0 mm 8 mps 764 mmHg 86%
03:00 +17°C° 0 mm 7 mps 764 mmHg 86%
04:00 +17°C° 0 mm 7 mps 764 mmHg 87%
05:00 +16°C° 0 mm 6 mps 764 mmHg 88%
06:00 +17°C° 0 mm 7 mps 764 mmHg 86%
07:00 +18°C° 0 mm 7 mps 765 mmHg 84%
08:00 +18°C° 0 mm 7 mps 765 mmHg 82%
09:00 +21°C° 0 mm 7 mps 765 mmHg 77%
10:00 +22°C° 0 mm 7 mps 765 mmHg 72%
11:00 +23°C° 0 mm 8 mps 764 mmHg 67%
12:00 +24°C° 0 mm 8 mps 764 mmHg 67%
13:00 +24°C° 0 mm 8 mps 763 mmHg 68%
14:00 +24°C° 0 mm 8 mps 763 mmHg 68%
15:00 +23°C° 0 mm 7 mps 763 mmHg 69%
16:00 +22°C° 0 mm 7 mps 763 mmHg 71%
17:00 +21°C° 0 mm 7 mps 763 mmHg 72%
18:00 +20°C° 0 mm 7 mps 763 mmHg 74%
19:00 +20°C° 0 mm 7 mps 763 mmHg 75%
20:00 +18°C° 0 mm 7 mps 764 mmHg 76%
21:00 +18°C° 0 mm 7 mps 764 mmHg 78%
22:00 +17°C° 0 mm 7 mps 764 mmHg 81%
23:00 +17°C° 0 mm 7 mps 764 mmHg 83%

22 April, Thursday

Time Temperature Precipitation Wind Pressure Humidity
00:00 +17°C° 0 mm 7 mps 763 mmHg 83%
01:00 +17°C° 0 mm 7 mps 763 mmHg 82%
02:00 +17°C° 0 mm 7 mps 763 mmHg 82%
03:00 +17°C° 0 mm 7 mps 763 mmHg 83%
04:00 +17°C° 0 mm 7 mps 763 mmHg 84%
05:00 +16°C° 0 mm 7 mps 763 mmHg 86%
06:00 +17°C° 0 mm 7 mps 763 mmHg 85%
07:00 +18°C° 0 mm 7 mps 764 mmHg 85%
08:00 +18°C° 0 mm 7 mps 764 mmHg 85%
09:00 +20°C° 0 mm 7 mps 764 mmHg 79%
10:00 +22°C° 0 mm 8 mps 763 mmHg 73%
11:00 +23°C° 0 mm 8 mps 763 mmHg 67%
12:00 +23°C° 0 mm 7 mps 762 mmHg 66%
13:00 +24°C° 0 mm 7 mps 762 mmHg 64%
14:00 +24°C° 0 mm 6 mps 761 mmHg 63%
15:00 +24°C° 0 mm 6 mps 761 mmHg 67%
16:00 +23°C° 0 mm 5 mps 761 mmHg 71%
17:00 +22°C° 0 mm 5 mps 761 mmHg 74%
18:00 +21°C° 0 mm 5 mps 762 mmHg 73%
19:00 +20°C° 0 mm 6 mps 762 mmHg 72%
20:00 +20°C° 0 mm 6 mps 762 mmHg 71%
21:00 +19°C° 0 mm 6 mps 762 mmHg 73%
22:00 +18°C° 0 mm 7 mps 762 mmHg 75%
23:00 +17°C° 0 mm 7 mps 762 mmHg 78%

23 April, Friday

Time Temperature Precipitation Wind Pressure Humidity
00:00 +17°C° 0 mm 7 mps 762 mmHg 81%
01:00 +17°C° 0 mm 7 mps 762 mmHg 83%
02:00 +17°C° 0 mm 6 mps 762 mmHg 86%
03:00 +16°C° 0 mm 6 mps 762 mmHg 88%
04:00 +16°C° 0 mm 6 mps 762 mmHg 90%
05:00 +16°C° 0 mm 6 mps 761 mmHg 92%
06:00 +16°C° 0 mm 6 mps 762 mmHg 89%
07:00 +17°C° 0 mm 6 mps 762 mmHg 86%
08:00 +19°C° 0 mm 6 mps 762 mmHg 83%
09:00 +20°C° 0 mm 6 mps 761 mmHg 77%
10:00 +22°C° 0 mm 6 mps 761 mmHg 70%
11:00 +23°C° 0 mm 6 mps 761 mmHg 64%
12:00 +23°C° 0 mm 6 mps 760 mmHg 62%
13:00 +24°C° 0 mm 6 mps 760 mmHg 61%
14:00 +25°C° 0 mm 5 mps 759 mmHg 60%
15:00 +23°C° 0 mm 5 mps 759 mmHg 65%
16:00 +22°C° 0 mm 4 mps 758 mmHg 70%
17:00 +21°C° 0 mm 4 mps 758 mmHg 75%
18:00 +20°C° 0 mm 4 mps 758 mmHg 76%
19:00 +20°C° 0 mm 4 mps 758 mmHg 77%
20:00 +19°C° 0 mm 4 mps 758 mmHg 78%
21:00 +19°C° 0 mm 5 mps 758 mmHg 78%
22:00 +19°C° 0 mm 5 mps 758 mmHg 78%
23:00 +17°C° 0 mm 5 mps 758 mmHg 79%

24 April, Saturday

Time Temperature Precipitation Wind Pressure Humidity
00:00 +18°C° 0 mm 4 mps 758 mmHg 80%
01:00 +18°C° 0 mm 4 mps 758 mmHg 82%
02:00 +17°C° 0 mm 3 mps 757 mmHg 84%
03:00 +17°C° 1.7 mm 3 mps 757 mmHg 88%
04:00 +17°C° 1.7 mm 3 mps 757 mmHg 92%
05:00 +17°C° 1.7 mm 3 mps 756 mmHg 96%
06:00 +17°C° 0 mm 3 mps 757 mmHg 95%
07:00 +17°C° 0 mm 4 mps 757 mmHg 94%
08:00 +18°C° 0 mm 4 mps 757 mmHg 93%
09:00 +19°C° 0 mm 4 mps 757 mmHg 89%
10:00 +20°C° 0 mm 5 mps 756 mmHg 84%
11:00 +21°C° 0 mm 5 mps 756 mmHg 80%
12:00 +21°C° 0.1 mm 5 mps 756 mmHg 79%
13:00 +22°C° 0.1 mm 5 mps 755 mmHg 79%
14:00 +22°C° 0.1 mm 6 mps 755 mmHg 78%
15:00 +21°C° 0.2 mm 6 mps 755 mmHg 81%
16:00 +20°C° 0.2 mm 6 mps 755 mmHg 84%
17:00 +19°C° 0.2 mm 6 mps 755 mmHg 87%
18:00 +19°C° 0.2 mm 6 mps 755 mmHg 88%
19:00 +19°C° 0.2 mm 6 mps 756 mmHg 88%
20:00 +17°C° 0.2 mm 6 mps 756 mmHg 88%
21:00 +17°C° 0.2 mm 6 mps 756 mmHg 88%
22:00 +16°C° 0.2 mm 6 mps 756 mmHg 88%
23:00 +16°C° 0.2 mm 6 mps 756 mmHg 88%
Show more